QPF
0.01 0.00 0.00 0.00 0.00 0.00 0.00 0.00 0.00 0.00 0.00 0.00 0.00 0.00 0.00 0.01 0.01 0.01 0.01 0.01 0.01 0.01 0.01 0.01 0.01 0.02 0.03 0.04 0.04 0.05 0.05 0.04 0.04 0.03 0.03 0.03 0.02 0.03 0.04 0.06 0.10 0.10 0.11 0.13
0.01 0.01 0.01 0.00 0.00 0.00 0.00 0.00 0.00 0.00 0.00 0.00 0.00 0.00 0.00 0.01 0.00 0.01 0.00 0.01 0.01 0.01 0.01 0.01 0.01 0.02 0.03 0.04 0.04 0.05 0.05 0.05 0.06 0.05 0.05 0.05 0.03 0.03 0.04 0.05 0.08 0.10 0.11 0.10
0.01 0.01 0.00 0.00 0.00 0.00 0.00 0.00 0.00 0.00 0.00 0.01 0.01 0.01 0.01 0.01 0.00 0.00 0.00 0.01 0.01 0.01 0.01 0.01 0.01 0.02 0.03 0.04 0.04 0.05 0.05 0.05 0.06 0.07 0.08 0.07 0.05 0.05 0.04 0.04 0.06 0.07 0.08 0.09
0.01 0.00 0.00 0.00 0.00 0.00 0.00 0.00 0.00 0.00 0.00 0.00 0.01 0.01 0.01 0.01 0.01 0.01 0.00 0.01 0.01 0.01 0.01 0.01 0.01 0.01 0.02 0.02 0.03 0.04 0.05 0.07 0.07 0.09 0.09 0.09 0.08 0.06 0.05 0.05 0.06 0.06 0.06 0.07
0.01 0.00 0.00 0.00 0.00 0.00 0.00 0.00 0.00 0.00 0.00 0.00 0.01 0.01 0.01 0.00 0.01 0.01 0.00 0.01 0.01 0.01 0.01 0.01 0.01 0.01 0.01 0.01 0.02 0.02 0.04 0.06 0.08 0.10 0.09 0.09 0.09 0.07 0.06 0.06 0.06 0.06 0.06 0.05
0.01 0.00 0.00 0.00 0.00 0.00 0.00 0.00 0.00 0.00 0.00 0.00 0.00 0.00 0.00 0.00 0.00 0.00 0.00 0.00 0.01 0.01 0.00 0.00 0.00 0.00 0.01 0.01 0.01 0.02 0.03 0.04 0.06 0.07 0.08 0.08 0.07 0.06 0.05 0.05 0.06 0.05 0.05 0.05
0.01 0.01 0.00 0.00 0.00 0.00 0.00 0.00 0.00 0.00 0.00 0.00 0.00 0.00 0.00 0.00 0.00 0.00 0.00 0.00 0.00 0.00 0.00 0.00 0.00 0.00 0.00 0.00 0.01 0.01 0.02 0.03 0.03 0.03 0.04 0.04 0.05 0.05 0.04 0.04 0.04 0.04 0.04 0.03
0.00 0.00 0.00 0.00 0.00 0.00 0.00 0.00 0.00 0.00 0.00 0.00 0.00 0.00 0.00 0.00 0.00 0.00 0.00 0.00 0.00 0.00 0.00 0.00 0.00 0.00 0.00 0.00 0.00 0.01 0.01 0.02 0.02 0.01 0.02 0.02 0.02 0.02 0.03 0.03 0.02 0.02 0.02 0.02
0.00 0.00 0.00 0.00 0.00 0.00 0.00 0.00 0.00 0.00 0.00 0.00 0.00 0.00 0.00 0.00 0.00 0.00 0.00 0.00 0.00 0.00 0.00 0.00 0.00 0.00 0.00 0.00 0.00 0.00 0.01 0.02 0.01 0.01 0.01 0.01 0.02 0.01 0.02 0.02 0.02 0.02 0.02 0.01
0.00 0.00 0.00 0.00 0.00 0.00 0.00 0.00 0.00 0.00 0.00 0.00 0.00 0.00 0.00 0.00 0.00 0.00 0.00 0.00 0.00 0.00 0.00 0.00 0.00 0.00 0.00 0.00 0.00 0.00 0.00 0.01 0.01 0.01 0.01 0.01 0.01 0.02 0.02 0.03 0.03 0.03 0.03 0.02
0.00 0.00 0.00 0.00 0.00 0.00 0.00 0.00 0.00 0.00 0.00 0.00 0.00 0.00 0.00 0.00 0.00 0.00 0.00 0.00 0.00 0.00 0.00 0.00 0.00 0.00 0.00 0.00 0.00 0.00 0.00 0.00 0.01 0.01 0.01 0.01 0.01 0.01 0.02 0.02 0.03 0.03 0.03 0.03
0.00 0.00 0.00 0.00 0.00 0.00 0.00 0.00 0.00 0.00 0.00 0.00 0.00 0.00 0.00 0.00 0.00 0.00 0.00 0.00 0.00 0.00 0.00 0.00 0.00 0.00 0.00 0.00 0.00 0.00 0.00 0.00 0.00 0.01 0.01 0.01 0.00 0.00 0.01 0.01 0.01 0.02 0.02 0.02
0.00 0.00 0.00 0.00 0.00 0.00 0.00 0.00 0.00 0.00 0.00 0.00 0.00 0.00 0.00 0.00 0.00 0.00 0.00 0.00 0.00 0.00 0.00 0.00 0.00 0.00 0.00 0.00 0.00 0.00 0.00 0.00 0.00 0.00 0.01 0.01 0.01 0.01 0.00 0.01 0.01 0.01 0.01 0.01
0.00 0.00 0.00 0.00 0.00 0.00 0.00 0.00 0.00 0.00 0.00 0.00 0.00 0.00 0.00 0.00 0.00 0.00 0.00 0.00 0.00 0.00 0.00 0.00 0.00 0.00 0.00 0.00 0.00 0.00 0.00 0.00 0.00 0.00 0.00 0.01 0.01 0.01 0.01 0.01 0.01 0.01 0.01 0.01
0.00 0.00 0.00 0.00 0.00 0.00 0.00 0.00 0.00 0.00 0.00 0.00 0.00 0.00 0.00 0.00 0.00 0.00 0.00 0.00 0.00 0.00 0.00 0.00 0.00 0.00 0.00 0.00 0.00 0.00 0.00 0.00 0.00 0.00 0.00 0.00 0.01 0.01 0.02 0.02 0.01 0.01 0.01 0.01
0.00 0.00 0.00 0.00 0.00 0.00 0.00 0.00 0.00 0.00 0.00 0.00 0.00 0.00 0.00 0.00 0.00 0.00 0.00 0.00 0.00 0.00 0.00 0.00 0.00 0.00 0.00 0.00 0.00 0.00 0.00 0.00 0.00 0.00 0.00 0.00 0.00 0.01 0.01 0.02 0.02 0.01 0.01 0.01
0.00 0.00 0.00 0.00 0.00 0.00 0.00 0.00 0.00 0.00 0.00 0.00 0.00 0.00 0.00 0.00 0.00 0.00 0.00 0.00 0.00 0.00 0.00 0.00 0.00 0.00 0.00 0.00 0.00 0.00 0.00 0.00 0.00 0.00 0.00 0.00 0.00 0.00 0.01 0.01 0.01 0.02 0.02 0.02
0.00 0.00 0.00 0.00 0.00 0.00 0.00 0.00 0.00 0.00 0.00 0.00 0.00 0.00 0.00 0.00 0.00 0.00 0.00 0.00 0.00 0.00 0.00 0.00 0.00 0.00 0.00 0.00 0.00 0.00 0.00 0.00 0.00 0.00 0.00 0.00 0.00 0.00 0.00 0.01 0.01 0.01 0.01 0.02
0.00 0.00 0.00 0.00 0.00 0.00 0.00 0.00 0.00 0.00 0.00 0.00 0.00 0.00 0.00 0.00 0.00 0.00 0.00 0.00 0.00 0.00 0.00 0.00 0.00 0.00 0.00 0.00 0.00 0.00 0.00 0.00 0.00 0.00 0.00 0.00 0.00 0.00 0.01 0.01 0.01 0.01 0.01 0.02
0.00 0.00 0.00 0.00 0.00 0.00 0.00 0.00 0.00 0.00 0.00 0.00 0.00 0.00 0.00 0.00 0.00 0.00 0.00 0.00 0.00 0.00 0.00 0.00 0.00 0.00 0.00 0.00 0.00 0.00 0.00 0.00 0.00 0.00 0.00 0.00 0.01 0.01 0.01 0.01 0.01 0.01 0.01 0.01
0.00 0.00 0.00 0.00 0.00 0.00 0.00 0.00 0.00 0.00 0.00 0.00 0.00 0.00 0.00 0.00 0.00 0.00 0.00 0.00 0.00 0.00 0.00 0.00 0.00 0.00 0.00 0.00 0.00 0.00 0.00 0.00 0.00 0.00 0.01 0.01 0.01 0.01 0.01 0.01 0.01 0.01 0.01 0.01
0.00 0.00 0.00 0.00 0.00 0.00 0.00 0.00 0.00 0.00 0.00 0.00 0.00 0.00 0.00 0.00 0.00 0.00 0.00 0.00 0.00 0.00 0.00 0.00 0.00 0.00 0.00 0.00 0.00 0.00 0.00 0.00 0.01 0.01 0.01 0.01 0.01 0.01 0.01 0.01 0.01 0.01 0.01 0.01
0.00 0.00 0.00 0.00 0.00 0.00 0.00 0.00 0.00 0.00 0.00 0.00 0.00 0.00 0.00 0.00 0.00 0.00 0.00 0.00 0.00 0.00 0.00 0.00 0.00 0.00 0.00 0.00 0.00 0.00 0.00 0.01 0.01 0.01 0.01 0.01 0.01 0.01 0.01 0.01 0.01 0.01 0.01 0.01
0.00 0.00 0.00 0.00 0.00 0.00 0.00 0.00 0.00 0.00 0.00 0.00 0.00 0.00 0.00 0.00 0.00 0.00 0.00 0.00 0.00 0.00 0.00 0.00 0.00 0.00 0.00 0.00 0.00 0.00 0.01 0.01 0.01 0.01 0.01 0.01 0.01 0.01 0.01 0.01 0.01 0.01 0.01 0.01
0.00 0.00 0.00 0.00 0.00 0.00 0.00 0.00 0.00 0.00 0.00 0.00 0.00 0.00 0.00 0.00 0.00 0.00 0.00 0.00 0.00 0.00 0.00 0.00 0.00 0.00 0.00 0.00 0.00 0.00 0.00 0.01 0.01 0.01 0.01 0.01 0.01 0.01 0.01 0.01 0.02 0.01 0.01 0.01
0.00 0.00 0.00 0.00 0.00 0.00 0.00 0.00 0.00 0.00 0.00 0.00 0.00 0.00 0.00 0.00 0.00 0.00 0.00 0.00 0.00 0.00 0.00 0.00 0.00 0.00 0.00 0.00 0.00 0.00 0.00 0.01 0.01 0.01 0.01 0.01 0.01 0.01 0.02 0.02 0.01 0.01 0.01 0.01
0.00 0.00 0.00 0.00 0.00 0.00 0.00 0.00 0.00 0.00 0.00 0.00 0.00 0.00 0.00 0.00 0.00 0.00 0.00 0.00 0.00 0.00 0.00 0.00 0.00 0.00 0.00 0.00 0.00 0.01 0.01 0.01 0.01 0.01 0.01 0.02 0.02 0.02 0.02 0.01 0.01 0.01 0.01 0.01
MSLP
1024.63 1024.41 1024.21 1024.03 1023.85 1023.62 1023.33 1022.91 1022.36 1021.68 1020.89 1020.05 1019.24 1018.53 1018.00 1017.70 1017.64 1017.82 1018.20 1018.73 1019.32 1019.91 1020.43 1020.84 1021.11 1021.26 1021.28 1021.21 1021.06 1020.87 1020.65 1020.40 1020.13 1019.84 1019.51 1019.15 1018.74 1018.30 1017.81 1017.29 1016.74 1016.17 1015.58 1014.97
1024.75 1024.37 1023.96 1023.54 1023.10 1022.66 1022.18 1021.65 1021.07 1020.43 1019.76 1019.08 1018.45 1017.92 1017.54 1017.33 1017.31 1017.49 1017.82 1018.28 1018.81 1019.35 1019.86 1020.29 1020.63 1020.86 1020.99 1021.01 1020.94 1020.80 1020.61 1020.35 1020.06 1019.73 1019.37 1018.97 1018.55 1018.11 1017.64 1017.14 1016.62 1016.06 1015.48 1014.87
1024.89 1024.32 1023.67 1022.99 1022.30 1021.62 1020.95 1020.32 1019.70 1019.11 1018.55 1018.04 1017.60 1017.25 1017.02 1016.93 1016.97 1017.15 1017.45 1017.85 1018.32 1018.81 1019.31 1019.76 1020.15 1020.46 1020.68 1020.79 1020.80 1020.72 1020.55 1020.30 1019.99 1019.63 1019.24 1018.82 1018.39 1017.95 1017.50 1017.03 1016.53 1015.99 1015.41 1014.78
1024.97 1024.19 1023.32 1022.38 1021.44 1020.54 1019.71 1018.97 1018.33 1017.78 1017.34 1016.99 1016.74 1016.57 1016.50 1016.52 1016.62 1016.82 1017.10 1017.46 1017.87 1018.33 1018.80 1019.26 1019.69 1020.07 1020.36 1020.55 1020.63 1020.60 1020.46 1020.22 1019.90 1019.52 1019.11 1018.68 1018.25 1017.81 1017.38 1016.93 1016.45 1015.92 1015.34 1014.69
1024.89 1023.93 1022.84 1021.68 1020.53 1019.45 1018.49 1017.68 1017.03 1016.54 1016.21 1016.01 1015.93 1015.93 1016.01 1016.13 1016.30 1016.53 1016.79 1017.11 1017.48 1017.90 1018.35 1018.81 1019.27 1019.69 1020.04 1020.29 1020.43 1020.44 1020.33 1020.10 1019.77 1019.39 1018.96 1018.53 1018.09 1017.67 1017.25 1016.82 1016.35 1015.83 1015.24 1014.57
1024.57 1023.44 1022.18 1020.86 1019.57 1018.37 1017.33 1016.49 1015.87 1015.45 1015.24 1015.18 1015.25 1015.39 1015.59 1015.80 1016.03 1016.27 1016.53 1016.81 1017.14 1017.52 1017.95 1018.41 1018.88 1019.33 1019.72 1020.01 1020.19 1020.24 1020.14 1019.92 1019.60 1019.21 1018.78 1018.34 1017.91 1017.49 1017.08 1016.66 1016.20 1015.68 1015.08 1014.38
1023.91 1022.66 1021.30 1019.89 1018.54 1017.31 1016.27 1015.46 1014.90 1014.58 1014.47 1014.54 1014.73 1014.99 1015.27 1015.55 1015.81 1016.06 1016.30 1016.55 1016.85 1017.19 1017.59 1018.03 1018.50 1018.97 1019.38 1019.71 1019.91 1019.98 1019.90 1019.70 1019.38 1018.99 1018.56 1018.12 1017.69 1017.27 1016.86 1016.44 1015.98 1015.45 1014.84 1014.13
1022.86 1021.56 1020.17 1018.77 1017.45 1016.28 1015.32 1014.60 1014.14 1013.93 1013.94 1014.11 1014.39 1014.73 1015.07 1015.38 1015.65 1015.89 1016.10 1016.32 1016.57 1016.88 1017.25 1017.67 1018.14 1018.60 1019.02 1019.36 1019.59 1019.67 1019.61 1019.41 1019.11 1018.72 1018.29 1017.84 1017.41 1016.99 1016.57 1016.14 1015.68 1015.14 1014.52 1013.80
1021.43 1020.14 1018.81 1017.52 1016.33 1015.30 1014.49 1013.92 1013.60 1013.52 1013.63 1013.88 1014.23 1014.60 1014.96 1015.27 1015.53 1015.74 1015.92 1016.10 1016.31 1016.58 1016.92 1017.32 1017.76 1018.22 1018.64 1018.99 1019.22 1019.32 1019.27 1019.09 1018.79 1018.41 1017.98 1017.54 1017.09 1016.66 1016.23 1015.79 1015.31 1014.76 1014.13 1013.41
1019.69 1018.49 1017.30 1016.18 1015.20 1014.39 1013.79 1013.41 1013.25 1013.29 1013.50 1013.81 1014.18 1014.56 1014.91 1015.19 1015.41 1015.57 1015.71 1015.85 1016.02 1016.26 1016.57 1016.94 1017.37 1017.81 1018.23 1018.58 1018.82 1018.93 1018.90 1018.73 1018.45 1018.09 1017.66 1017.22 1016.77 1016.32 1015.87 1015.41 1014.90 1014.34 1013.71 1012.99
1017.77 1016.71 1015.72 1014.85 1014.12 1013.57 1013.21 1013.04 1013.05 1013.21 1013.49 1013.84 1014.21 1014.55 1014.85 1015.09 1015.25 1015.37 1015.46 1015.56 1015.70 1015.91 1016.19 1016.55 1016.96 1017.39 1017.80 1018.15 1018.39 1018.52 1018.51 1018.36 1018.11 1017.76 1017.35 1016.90 1016.45 1015.99 1015.52 1015.03 1014.50 1013.93 1013.29 1012.58
1015.82 1014.94 1014.19 1013.59 1013.14 1012.87 1012.75 1012.78 1012.94 1013.20 1013.52 1013.87 1014.21 1014.51 1014.75 1014.92 1015.03 1015.09 1015.14 1015.21 1015.33 1015.52 1015.79 1016.13 1016.53 1016.95 1017.35 1017.70 1017.96 1018.10 1018.11 1017.99 1017.77 1017.44 1017.05 1016.62 1016.16 1015.69 1015.20 1014.69 1014.15 1013.56 1012.92 1012.22
1013.98 1013.31 1012.81 1012.48 1012.32 1012.29 1012.39 1012.59 1012.87 1013.19 1013.53 1013.86 1014.15 1014.38 1014.55 1014.66 1014.72 1014.74 1014.77 1014.82 1014.93 1015.12 1015.37 1015.71 1016.09 1016.50 1016.90 1017.25 1017.52 1017.68 1017.71 1017.63 1017.44 1017.15 1016.79 1016.37 1015.92 1015.45 1014.95 1014.42 1013.87 1013.27 1012.63 1011.96
1012.38 1011.92 1011.66 1011.58 1011.65 1011.85 1012.12 1012.44 1012.79 1013.14 1013.47 1013.75 1013.98 1014.15 1014.26 1014.32 1014.33 1014.34 1014.36 1014.41 1014.53 1014.71 1014.97 1015.30 1015.67 1016.07 1016.46 1016.81 1017.08 1017.26 1017.33 1017.28 1017.13 1016.88 1016.55 1016.16 1015.73 1015.26 1014.76 1014.23 1013.67 1013.08 1012.45 1011.80
1011.06 1010.81 1010.77 1010.90 1011.17 1011.51 1011.90 1012.30 1012.68 1013.02 1013.31 1013.54 1013.71 1013.82 1013.88 1013.90 1013.91 1013.91 1013.94 1014.01 1014.14 1014.33 1014.59 1014.92 1015.28 1015.67 1016.04 1016.38 1016.66 1016.85 1016.94 1016.93 1016.82 1016.61 1016.33 1015.97 1015.57 1015.12 1014.63 1014.11 1013.56 1012.98 1012.38 1011.76
1010.05 1009.99 1010.13 1010.42 1010.82 1011.26 1011.71 1012.13 1012.50 1012.81 1013.05 1013.23 1013.34 1013.41 1013.45 1013.46 1013.47 1013.50 1013.55 1013.65 1013.80 1014.01 1014.27 1014.58 1014.93 1015.29 1015.65 1015.97 1016.24 1016.44 1016.56 1016.58 1016.51 1016.35 1016.10 1015.79 1015.42 1015.00 1014.54 1014.04 1013.52 1012.96 1012.39 1011.80
1009.33 1009.41 1009.69 1010.10 1010.58 1011.07 1011.53 1011.93 1012.27 1012.52 1012.71 1012.84 1012.91 1012.96 1012.99 1013.02 1013.06 1013.13 1013.22 1013.35 1013.52 1013.74 1014.00 1014.29 1014.61 1014.95 1015.27 1015.58 1015.84 1016.04 1016.17 1016.22 1016.18 1016.07 1015.87 1015.61 1015.28 1014.89 1014.46 1014.00 1013.50 1012.98 1012.44 1011.89
1008.82 1009.04 1009.42 1009.89 1010.40 1010.89 1011.32 1011.68 1011.96 1012.17 1012.30 1012.39 1012.45 1012.50 1012.55 1012.61 1012.70 1012.81 1012.94 1013.11 1013.30 1013.52 1013.77 1014.04 1014.33 1014.62 1014.92 1015.19 1015.43 1015.63 1015.77 1015.84 1015.85 1015.77 1015.62 1015.40 1015.11 1014.77 1014.38 1013.95 1013.49 1013.00 1012.50 1011.99
1008.48 1008.80 1009.23 1009.73 1010.23 1010.68 1011.07 1011.37 1011.59 1011.74 1011.84 1011.91 1011.97 1012.04 1012.12 1012.23 1012.37 1012.53 1012.70 1012.90 1013.11 1013.33 1013.56 1013.80 1014.05 1014.30 1014.55 1014.80 1015.02 1015.21 1015.36 1015.46 1015.49 1015.46 1015.35 1015.17 1014.93 1014.62 1014.27 1013.88 1013.45 1013.00 1012.54 1012.06
1008.26 1008.63 1009.09 1009.57 1010.03 1010.43 1010.75 1010.99 1011.15 1011.26 1011.33 1011.40 1011.47 1011.57 1011.70 1011.86 1012.04 1012.25 1012.46 1012.68 1012.89 1013.10 1013.31 1013.52 1013.73 1013.95 1014.16 1014.38 1014.59 1014.78 1014.95 1015.07 1015.13 1015.13 1015.07 1014.93 1014.72 1014.46 1014.14 1013.77 1013.38 1012.96 1012.52 1012.07
1008.11 1008.50 1008.94 1009.39 1009.78 1010.11 1010.35 1010.53 1010.64 1010.71 1010.77 1010.84 1010.94 1011.07 1011.24 1011.45 1011.68 1011.92 1012.16 1012.40 1012.61 1012.81 1013.00 1013.17 1013.36 1013.54 1013.73 1013.94 1014.14 1014.34 1014.52 1014.67 1014.77 1014.81 1014.78 1014.68 1014.51 1014.27 1013.98 1013.65 1013.27 1012.87 1012.45 1012.01
1007.97 1008.36 1008.76 1009.13 1009.45 1009.69 1009.86 1009.97 1010.04 1010.09 1010.14 1010.22 1010.34 1010.51 1010.72 1010.97 1011.23 1011.50 1011.76 1012.00 1012.22 1012.41 1012.58 1012.74 1012.90 1013.07 1013.25 1013.46 1013.67 1013.89 1014.09 1014.27 1014.41 1014.48 1014.49 1014.43 1014.29 1014.08 1013.81 1013.50 1013.14 1012.75 1012.34 1011.91
1007.82 1008.16 1008.49 1008.78 1009.01 1009.17 1009.26 1009.32 1009.34 1009.37 1009.43 1009.52 1009.67 1009.86 1010.11 1010.39 1010.68 1010.97 1011.24 1011.48 1011.70 1011.88 1012.05 1012.20 1012.36 1012.53 1012.73 1012.94 1013.18 1013.42 1013.66 1013.88 1014.05 1014.17 1014.21 1014.18 1014.07 1013.89 1013.64 1013.34 1012.99 1012.61 1012.20 1011.76
1007.59 1007.85 1008.10 1008.29 1008.43 1008.51 1008.54 1008.55 1008.55 1008.56 1008.62 1008.73 1008.90 1009.12 1009.39 1009.69 1010.00 1010.31 1010.59 1010.84 1011.06 1011.26 1011.43 1011.60 1011.77 1011.96 1012.17 1012.42 1012.68 1012.96 1013.23 1013.49 1013.70 1013.85 1013.93 1013.93 1013.85 1013.69 1013.46 1013.17 1012.83 1012.45 1012.04 1011.60
1007.19 1007.38 1007.53 1007.63 1007.69 1007.70 1007.68 1007.65 1007.63 1007.65 1007.72 1007.85 1008.04 1008.29 1008.58 1008.90 1009.23 1009.55 1009.85 1010.11 1010.35 1010.56 1010.76 1010.95 1011.15 1011.37 1011.62 1011.90 1012.20 1012.51 1012.82 1013.11 1013.35 1013.53 1013.65 1013.67 1013.62 1013.48 1013.27 1012.99 1012.66 1012.29 1011.88 1011.44
1006.57 1006.66 1006.73 1006.75 1006.74 1006.70 1006.65 1006.61 1006.61 1006.64 1006.73 1006.89 1007.11 1007.39 1007.71 1008.05 1008.39 1008.73 1009.05 1009.34 1009.61 1009.85 1010.08 1010.31 1010.55 1010.81 1011.10 1011.41 1011.75 1012.09 1012.43 1012.74 1013.00 1013.21 1013.34 1013.39 1013.36 1013.24 1013.05 1012.79 1012.47 1012.11 1011.71 1011.27
1005.64 1005.65 1005.65 1005.62 1005.57 1005.51 1005.46 1005.44 1005.45 1005.53 1005.66 1005.86 1006.12 1006.43 1006.78 1007.15 1007.53 1007.90 1008.25 1008.58 1008.88 1009.17 1009.45 1009.72 1010.01 1010.32 1010.64 1010.99 1011.35 1011.71 1012.06 1012.38 1012.65 1012.87 1013.01 1013.08 1013.06 1012.96 1012.79 1012.55 1012.25 1011.90 1011.52 1011.09
Thickness
5507 5513 5512 5513 5514 5512 5507 5505 5501 5512 5514 5526 5522 5520 5518 5515 5513 5510 5508 5504 5501 5497 5495 5494 5494 5493 5493 5493 5493 5493 5493 5493 5493 5493 5493 5493 5492 5493 5493 5493 5493 5494 5495 5496
5508 5517 5514 5515 5518 5516 5515 5514 5513 5515 5520 5529 5523 5520 5517 5514 5512 5510 5508 5505 5501 5498 5495 5493 5492 5491 5491 5491 5490 5490 5490 5489 5490 5490 5489 5489 5488 5488 5489 5488 5488 5488 5488 5488
5500 5507 5514 5516 5526 5522 5519 5519 5517 5517 5525 5525 5522 5522 5519 5516 5513 5511 5508 5504 5501 5498 5496 5494 5491 5490 5489 5488 5487 5487 5486 5486 5486 5486 5485 5485 5484 5483 5482 5482 5481 5481 5481 5481
5494 5503 5512 5534 5536 5531 5525 5524 5521 5525 5525 5523 5522 5522 5520 5516 5513 5510 5507 5505 5501 5498 5495 5492 5490 5488 5487 5485 5484 5484 5483 5482 5482 5481 5481 5480 5479 5477 5476 5475 5474 5474 5474 5475
5489 5493 5510 5530 5533 5529 5523 5524 5526 5523 5523 5521 5519 5517 5516 5517 5514 5511 5508 5505 5501 5497 5494 5491 5488 5486 5484 5482 5481 5480 5479 5478 5477 5476 5475 5474 5473 5471 5470 5469 5468 5467 5467 5466
5486 5494 5507 5535 5535 5531 5527 5523 5529 5524 5521 5518 5514 5509 5515 5517 5513 5510 5507 5503 5499 5495 5491 5488 5486 5483 5480 5478 5477 5476 5475 5474 5473 5471 5470 5468 5466 5465 5464 5463 5461 5460 5458 5456
5483 5488 5508 5528 5527 5526 5519 5528 5530 5525 5521 5516 5511 5513 5514 5513 5510 5508 5504 5501 5497 5493 5489 5486 5483 5480 5477 5474 5473 5473 5471 5469 5467 5466 5464 5462 5460 5458 5456 5455 5453 5451 5449 5447
5481 5484 5506 5527 5520 5518 5524 5526 5525 5522 5519 5514 5511 5510 5509 5507 5506 5503 5500 5497 5494 5490 5487 5484 5480 5476 5474 5471 5470 5468 5466 5463 5461 5459 5457 5456 5452 5450 5448 5445 5444 5442 5440 5438
5497 5514 5524 5521 5521 5523 5520 5519 5519 5516 5514 5511 5508 5505 5504 5502 5500 5498 5496 5493 5489 5486 5483 5479 5476 5473 5470 5468 5465 5462 5459 5457 5455 5453 5450 5448 5445 5442 5439 5436 5434 5432 5430 5428
5496 5512 5516 5516 5515 5516 5515 5514 5514 5511 5509 5506 5503 5501 5498 5496 5494 5492 5491 5488 5485 5481 5478 5475 5472 5469 5466 5464 5460 5456 5453 5450 5448 5446 5443 5440 5437 5434 5431 5427 5424 5422 5420 5418
5496 5509 5510 5514 5513 5513 5511 5509 5506 5505 5503 5501 5498 5496 5494 5491 5489 5487 5486 5483 5479 5476 5473 5471 5467 5464 5461 5458 5454 5449 5446 5444 5441 5439 5436 5432 5429 5425 5422 5419 5415 5412 5409 5407
5508 5514 5508 5514 5514 5510 5507 5505 5503 5500 5498 5496 5493 5491 5489 5486 5484 5482 5480 5477 5473 5470 5468 5465 5461 5458 5455 5451 5447 5443 5440 5436 5433 5430 5427 5423 5420 5417 5414 5410 5408 5405 5402 5399
5513 5513 5509 5511 5509 5506 5503 5501 5499 5496 5494 5491 5489 5486 5484 5481 5479 5476 5474 5471 5468 5465 5462 5459 5455 5452 5449 5445 5440 5436 5433 5429 5425 5421 5417 5413 5410 5406 5404 5402 5399 5397 5394 5392
5505 5503 5503 5505 5503 5501 5498 5496 5494 5491 5488 5486 5483 5481 5478 5475 5472 5470 5467 5465 5462 5458 5455 5451 5448 5445 5442 5438 5433 5428 5425 5421 5417 5412 5407 5403 5400 5396 5393 5390 5388 5386 5385 5383
5499 5498 5500 5500 5497 5494 5491 5488 5485 5483 5481 5479 5476 5473 5471 5468 5466 5464 5461 5457 5454 5450 5447 5443 5440 5437 5434 5429 5424 5420 5416 5412 5407 5402 5398 5393 5390 5386 5383 5380 5378 5376 5374 5373
5493 5491 5491 5490 5490 5487 5484 5482 5479 5478 5475 5473 5469 5467 5464 5462 5459 5455 5452 5448 5444 5442 5439 5435 5432 5429 5425 5421 5416 5411 5407 5404 5399 5393 5388 5384 5380 5376 5373 5371 5368 5365 5364 5362
5484 5484 5483 5482 5482 5480 5478 5476 5475 5473 5469 5466 5463 5460 5456 5453 5449 5446 5444 5440 5437 5434 5431 5427 5424 5421 5417 5412 5407 5402 5398 5394 5390 5384 5378 5374 5371 5367 5364 5361 5359 5356 5355 5354
5483 5483 5481 5479 5477 5474 5472 5470 5468 5465 5462 5460 5456 5451 5447 5444 5442 5439 5436 5431 5427 5424 5422 5419 5416 5412 5407 5403 5398 5393 5388 5384 5379 5374 5369 5365 5361 5357 5354 5351 5349 5347 5346 5345
5474 5474 5473 5471 5470 5467 5465 5462 5460 5458 5455 5451 5447 5443 5440 5437 5434 5431 5426 5422 5418 5416 5415 5411 5407 5402 5397 5393 5388 5383 5378 5373 5368 5363 5359 5356 5351 5347 5344 5342 5340 5339 5337 5336
5465 5465 5464 5462 5460 5458 5456 5454 5452 5448 5445 5441 5438 5435 5432 5429 5425 5421 5417 5414 5413 5411 5407 5402 5397 5392 5387 5382 5378 5372 5367 5362 5357 5353 5348 5344 5340 5337 5334 5332 5331 5330 5329 5327
5456 5456 5454 5452 5451 5449 5447 5445 5442 5439 5436 5432 5428 5426 5424 5421 5416 5412 5408 5406 5406 5401 5396 5393 5387 5382 5377 5372 5368 5361 5356 5351 5347 5342 5338 5334 5330 5328 5325 5323 5322 5321 5320 5320
5447 5445 5445 5443 5441 5439 5438 5435 5432 5429 5426 5423 5419 5416 5413 5410 5407 5403 5400 5398 5397 5392 5387 5382 5376 5372 5367 5363 5357 5351 5346 5341 5337 5332 5328 5324 5321 5319 5316 5314 5313 5313 5312 5311
5437 5436 5435 5434 5432 5430 5428 5425 5423 5420 5417 5414 5411 5407 5404 5402 5399 5395 5393 5390 5386 5383 5377 5372 5367 5363 5359 5353 5347 5341 5336 5332 5327 5323 5319 5315 5312 5310 5308 5306 5305 5304 5303 5303
5428 5428 5426 5424 5421 5419 5418 5418 5414 5412 5408 5405 5402 5399 5396 5393 5390 5388 5385 5382 5378 5374 5368 5363 5359 5355 5350 5342 5336 5331 5326 5322 5318 5314 5310 5306 5303 5301 5300 5299 5297 5296 5296 5295
5420 5418 5416 5413 5412 5413 5412 5409 5405 5402 5399 5396 5394 5391 5388 5385 5382 5380 5375 5371 5369 5364 5359 5354 5350 5345 5338 5332 5326 5321 5317 5313 5309 5305 5302 5299 5296 5294 5293 5292 5291 5290 5289 5288
5411 5410 5410 5409 5408 5407 5404 5400 5397 5395 5392 5389 5387 5384 5380 5377 5373 5369 5365 5361 5357 5354 5348 5343 5338 5334 5328 5322 5317 5313 5309 5305 5301 5298 5295 5292 5290 5288 5286 5285 5284 5284 5283 5283
5403 5401 5400 5399 5399 5398 5395 5393 5391 5389 5386 5383 5380 5377 5373 5369 5364 5360 5356 5352 5347 5343 5338 5334 5328 5324 5319 5314 5310 5305 5301 5298 5295 5292 5289 5287 5284 5282 5281 5279 5279 5278 5277 5277